Wind_Speed
2 3 4 4 4 5 6 7 8 8 8 9 9 10 13 14 16 9 6 3 5 7 7 6 4 4 3 2 2 2 2 4 6 1 2 7 3 4 4 5 6 6 6 8 11
3 4 4 5 6 7 7 7 8 8 8 9 9 10 11 15 15 10 7 8 6 10 10 9 6 5 3 2 2 2 3 5 7 7 7 10 8 8 7 8 9 8 11 24 13
4 5 5 6 7 8 9 9 10 11 11 11 10 9 9 11 5 2 3 4 7 12 6 8 7 4 6 3 4 4 4 6 9 9 7 7 9 7 8 8 10 11 13 9 10
4 4 5 5 7 8 10 11 12 14 13 12 11 9 6 3 4 0 1 5 7 13 4 4 5 3 4 6 8 6 7 8 9 6 3 4 9 10 11 12 11 12 11 8 10
4 4 4 5 7 9 11 13 14 14 15 15 12 8 2 4 3 2 1 5 10 9 10 6 7 6 6 5 5 7 9 10 10 6 7 7 8 9 18 17 13 14 11 9 9
5 4 4 5 7 9 11 14 15 15 16 14 10 5 2 5 1 2 3 6 5 8 9 10 4 4 7 6 6 7 8 9 9 14 11 9 8 5 12 12 12 11 9 9 10
5 5 4 5 7 9 12 15 16 16 13 11 6 4 4 7 2 2 3 4 8 8 10 9 7 2 6 5 7 7 5 9 13 9 7 6 8 9 14 6 9 9 9 9 8
6 5 5 6 8 11 13 16 16 12 9 7 1 3 5 4 4 3 3 0 3 4 4 2 0 5 3 5 4 6 6 4 7 5 4 8 8 11 9 9 12 19 12 9 11
7 6 6 7 9 12 15 17 14 6 5 3 3 3 3 3 3 3 4 2 5 4 2 2 2 3 3 3 4 7 5 9 9 6 6 5 6 9 11 10 15 17 10 8 7
9 7 7 8 9 12 14 16 9 4 3 2 4 2 3 2 3 3 2 7 2 7 4 4 3 3 3 4 4 6 9 10 10 8 8 6 10 7 9 11 15 12 9 8 15
10 8 8 8 10 11 13 6 3 2 5 6 5 10 3 3 4 4 4 6 5 4 4 5 4 6 11 12 11 4 8 10 9 9 10 10 9 9 12 14 18 12 6 16 16
10 9 9 9 8 8 6 3 2 1 6 9 14 8 3 2 1 5 6 5 4 6 7 3 6 13 9 8 9 8 9 10 8 7 6 8 10 15 17 14 11 2 14 14 13
13 11 10 8 7 1 2 3 1 2 4 5 2 2 3 1 4 5 4 3 5 7 8 9 7 7 4 5 10 9 9 9 9 7 7 6 7 9 11 7 15 17 16 16 13
16 14 10 7 5 5 4 2 2 1 4 6 4 2 3 2 2 1 2 3 5 5 7 9 4 4 5 9 6 8 6 3 3 3 4 8 7 2 10 3 14 13 12 10 9
18 15 12 10 2 3 5 3 2 1 5 3 4 2 2 2 5 2 1 3 5 3 1 1 3 2 5 6 2 2 5 4 4 6 6 8 5 4 7 11 9 9 9 9 8
21 16 11 8 7 6 6 4 3 2 7 4 4 4 4 3 2 4 4 4 2 3 5 7 4 3 4 1 2 4 4 7 8 3 3 7 4 3 4 7 6 7 9 8 8
16 13 13 9 2 9 8 3 2 5 1 6 3 4 2 5 6 5 5 4 4 3 4 4 7 4 1 2 3 2 3 4 3 2 5 7 6 6 3 11 11 13 10 9 8
13 9 7 4 4 8 5 3 7 5 7 2 3 3 3 6 4 6 3 4 9 4 3 4 5 6 5 2 2 5 3 3 5 2 7 5 7 5 5 13 15 14 11 9 8
16 11 3 4 7 5 3 5 6 7 3 4 6 4 6 5 4 6 8 8 3 2 4 3 2 3 2 2 3 2 3 1 2 2 1 5 6 10 8 10 11 12 10 8 7
10 5 4 7 7 1 2 5 6 3 2 3 4 5 7 7 7 7 5 3 4 5 5 3 4 3 3 4 3 2 1 2 0 3 5 5 5 7 8 9 11 10 8 7 6
6 3 3 9 8 2 4 5 6 4 5 5 7 10 9 8 5 4 2 3 3 4 3 4 0 3 5 3 2 2 3 4 4 5 3 9 7 5 7 8 9 7 6 4 3
4 1 3 19 3 3 5 6 2 4 3 4 2 3 4 3 5 8 7 7 7 4 2 2 1 4 7 10 8 7 11 6 4 6 6 11 13 5 9 7 7 6 6 6 4
3 2 7 8 5 8 3 6 6 7 9 6 8 9 5 7 5 7 6 6 9 3 1 2 1 2 9 2 4 3 3 4 8 0 9 9 6 5 7 6 6 7 7 5 4
4 3 3 3 5 5 10 10 9 7 8 10 4 5 4 6 5 2 2 3 5 5 7 3 2 5 8 9 9 6 12 12 3 5 10 14 18 22 7 6 8 7 7 6 5
2 3 4 5 9 12 4 3 13 10 6 2 6 12 9 6 8 11 8 6 6 10 5 3 6 7 13 13 13 10 14 16 13 15 15 23 22 23 21 12 2 3 6 5 5
3 3 1 3 8 15 15 10 11 4 9 7 9 4 8 11 7 0 4 4 0 4 5 4 4 1 7 4 8 15 21 16 17 20 21 21 23 17 6 5 3 4 4 2 4
2 2 2 5 4 8 12 15 7 8 5 1 1 3 6 3 9 7 5 5 3 1 2 2 3 2 6 1 3 8 19 18 15 18 17 18 12 2 3 4 5 4 3 5 5
Wind_Direction
2 356 355 355 349 342 338 336 333 333 331 329 326 324 323 323 320 311 256 215 212 217 156 153 186 205 226 214 272 288 293 274 284 320 300 126 181 136 271 266 278 200 217 232 190
348 348 346 346 342 337 336 333 327 325 323 321 321 320 320 321 317 259 250 261 234 179 159 178 190 186 246 199 185 242 244 267 330 344 331 333 346 338 331 297 296 297 266 237 219
341 347 352 357 351 345 341 335 329 324 321 317 316 318 321 324 284 104 204 192 173 166 177 226 300 187 241 246 199 214 223 291 314 338 33 336 309 297 285 283 265 282 310 314 297
321 332 341 348 345 346 345 337 331 323 319 314 312 313 318 340 302 190 209 180 170 168 211 202 232 202 230 249 217 254 266 268 278 293 339 284 309 307 279 257 261 274 279 284 285
295 311 328 341 343 345 339 335 329 322 317 312 305 303 305 221 266 256 249 185 171 175 211 212 232 222 253 258 300 270 247 271 291 304 280 288 275 273 280 274 268 268 275 281 279
275 287 309 328 336 336 333 331 326 321 315 310 299 278 254 235 276 254 212 178 182 203 225 238 252 342 293 284 267 310 346 304 282 271 264 263 277 301 276 273 271 264 275 273 277
257 275 299 317 325 329 330 328 326 321 316 312 293 184 251 254 181 252 150 178 189 212 246 243 311 309 345 312 9 335 315 288 272 271 249 147 294 233 261 304 335 306 281 279 288
244 259 283 303 320 325 327 328 326 320 332 322 212 129 261 205 182 186 187 83 227 209 278 0 337 289 273 315 305 272 256 289 265 208 160 115 265 284 317 344 315 295 296 309 313
240 255 276 300 321 328 328 324 320 320 348 70 100 231 262 130 136 196 176 192 133 132 107 122 190 236 276 224 283 230 249 258 283 257 129 162 246 272 290 277 275 281 291 276 279
246 255 279 301 324 329 329 317 309 306 323 339 275 260 186 114 124 116 143 151 153 147 149 192 214 209 222 210 230 271 297 310 304 316 315 279 247 278 296 298 281 292 293 280 77
248 262 280 310 323 335 340 324 247 197 228 267 301 283 328 105 144 134 144 164 166 222 207 203 208 206 227 231 245 322 299 296 299 304 289 293 308 291 274 281 292 283 285 94 82
249 265 283 309 319 334 335 22 72 147 303 264 262 259 61 32 277 135 168 194 195 205 185 139 225 235 262 297 300 290 295 282 274 277 331 297 295 286 279 269 256 289 66 75 68
242 251 265 289 313 322 84 114 145 114 246 271 29 13 47 252 239 120 208 220 202 230 201 224 253 316 260 262 273 265 260 280 286 336 288 276 262 258 264 249 78 73 75 64 60
241 244 248 263 289 170 157 156 151 124 270 187 153 123 167 261 177 31 349 322 234 256 242 228 302 294 262 259 256 278 293 308 308 317 238 49 300 277 265 310 89 84 73 63 64
235 234 225 223 340 233 164 168 139 142 285 86 134 115 135 253 136 135 222 166 253 235 189 201 138 150 232 236 108 240 2 326 286 259 300 246 252 251 232 124 119 97 93 90 79
218 208 215 223 222 210 186 153 103 219 242 128 133 151 181 186 139 139 180 231 74 277 229 245 138 213 219 53 212 44 284 256 239 214 266 230 206 333 62 151 113 104 96 90 78
189 194 196 196 158 188 157 163 214 233 173 150 129 188 222 157 169 199 175 185 211 221 210 157 198 181 128 208 129 132 274 323 310 147 219 42 330 247 201 164 157 133 108 89 73
168 163 188 192 176 158 134 203 209 200 279 85 135 182 248 158 174 181 212 234 224 234 256 228 302 134 169 236 76 205 210 190 257 244 295 327 247 234 88 84 89 95 98 88 75
147 144 125 200 175 177 216 220 194 216 279 224 147 242 225 189 198 204 217 256 43 56 251 346 237 115 138 60 118 13 171 339 278 337 66 242 272 297 132 93 97 96 81 75 71
143 132 151 199 173 165 162 220 217 257 39 339 238 264 278 261 173 185 209 78 92 42 18 44 299 290 112 126 221 217 42 332 153 235 251 253 294 268 43 138 106 88 87 79 54
106 98 180 182 154 103 214 223 236 264 164 211 239 250 275 292 300 280 256 87 149 116 53 69 245 243 346 192 194 242 251 217 246 215 245 274 266 60 78 87 101 97 96 104 102
116 98 178 158 179 197 207 188 217 189 186 247 314 278 259 285 276 249 222 186 87 84 179 127 272 260 246 291 287 266 270 250 220 260 255 259 265 46 101 104 128 163 178 169 154
106 129 209 222 203 215 218 215 229 185 202 195 217 213 213 239 231 233 242 79 91 102 88 123 186 298 322 286 34 111 54 326 315 274 256 270 260 134 138 170 186 216 208 203 163
142 164 169 220 264 258 208 221 218 206 235 223 220 234 245 240 266 227 214 90 100 95 89 32 235 193 229 258 338 316 302 287 209 275 285 269 285 288 256 222 230 235 234 202 174
217 224 174 193 214 228 263 254 219 196 216 208 240 239 222 236 238 244 239 229 131 138 146 188 242 219 258 274 290 296 280 279 275 266 260 273 277 276 287 303 37 105 90 125 203
162 182 280 316 198 201 204 223 224 250 165 204 235 239 232 243 222 142 72 25 215 146 187 197 251 243 281 271 277 275 270 270 270 268 266 267 269 285 13 53 72 58 44 356 13
90 311 281 173 198 189 215 219 214 201 179 256 224 262 266 58 58 67 35 2 343 101 162 275 159 99 254 136 317 294 253 249 253 255 259 268 274 347 21 53 61 40 319 288 283
Height
818 818 817 817 816 816 815 814 813 812 811 810 808 807 805 803 801 799 798 796 796 796 797 800 801 801 802 799 801 800 819 820 806 798 794 788 792 786 783 788 785 782 781 776 777
818 818 817 816 816 815 814 813 812 810 809 808 807 806 804 802 799 796 794 793 794 796 798 799 800 801 802 800 802 809 818 806 789 789 795 791 791 792 793 792 788 782 771 770 773
818 817 816 816 815 814 813 812 811 809 808 807 805 804 803 801 799 791 792 792 793 795 798 799 799 800 804 797 801 802 813 796 793 789 791 795 796 789 793 797 788 785 777 771 773
818 817 816 815 815 814 813 812 810 808 806 805 804 803 802 802 811 792 792 792 793 795 797 797 798 803 805 806 796 807 798 797 794 789 792 797 793 797 792 785 776 774 771 770 770
817 816 816 815 814 813 812 810 808 806 804 802 802 801 801 801 795 792 792 793 794 796 797 797 799 801 807 797 795 801 799 795 791 790 791 790 796 799 786 775 772 768 766 767 766
815 815 815 814 813 811 810 808 806 804 802 800 799 800 802 805 792 791 791 793 795 797 797 797 795 795 798 799 803 794 798 797 794 791 788 793 792 793 777 770 768 765 765 763 763
813 814 813 812 811 810 808 806 803 801 799 797 797 798 799 794 792 791 791 792 793 795 797 796 797 799 795 800 797 797 808 799 790 784 785 784 798 793 775 769 769 766 763 762 760
812 812 812 811 810 808 806 803 801 799 797 796 796 798 796 790 790 791 792 793 794 796 796 796 797 799 799 795 798 805 805 813 786 779 789 788 806 782 771 773 773 764 763 763 761
810 810 810 809 808 807 804 801 798 797 797 796 798 798 791 790 791 791 792 793 795 796 797 797 799 801 799 809 816 804 815 804 796 775 789 795 799 780 771 772 769 760 761 760 758
809 808 808 808 807 805 802 799 796 796 796 797 798 801 791 789 790 791 792 794 795 797 799 799 801 807 808 813 825 809 806 799 802 786 783 791 795 781 774 768 762 762 759 756 767
806 807 806 806 805 803 801 798 799 798 796 789 791 788 786 789 789 791 791 793 794 797 803 800 809 813 802 796 793 799 802 804 794 784 789 790 787 781 770 765 761 760 757 765 767
804 805 806 805 804 803 801 800 804 807 801 786 783 784 786 789 790 792 793 794 795 799 795 807 812 792 787 789 794 797 805 803 790 781 786 788 791 778 768 760 755 754 765 772 776
801 803 804 804 802 802 801 802 802 803 804 783 781 784 788 790 787 789 792 789 794 797 796 801 789 782 788 793 797 798 800 797 798 791 786 787 790 780 760 751 762 767 773 779 784
798 799 801 802 804 800 800 800 802 804 802 784 786 787 787 787 790 792 791 794 789 793 789 792 788 790 791 795 794 804 786 785 793 799 808 788 803 772 762 761 770 776 783 789 793
793 796 798 800 799 799 800 799 801 804 813 779 787 786 785 788 790 792 792 790 794 789 792 790 792 794 798 792 785 791 794 794 794 803 805 798 806 766 754 774 780 784 788 792 797
788 792 796 798 797 797 797 798 801 809 808 783 783 785 786 787 789 790 788 790 789 790 787 786 786 788 786 784 785 791 793 794 795 801 820 786 783 777 767 772 781 787 791 798 802
783 788 793 794 794 794 795 798 808 808 772 782 781 781 780 782 786 789 791 795 794 796 794 786 787 782 783 791 790 795 800 818 816 822 815 785 792 775 759 760 767 782 794 801 806
781 787 791 793 792 794 795 798 808 791 780 776 778 779 781 777 779 785 784 790 779 782 792 794 794 785 786 784 789 792 793 820 827 820 806 790 801 776 762 769 775 786 797 804 809
780 784 790 791 791 794 795 799 794 786 773 773 778 784 781 779 779 781 783 782 777 779 792 790 788 782 781 781 786 789 799 789 809 823 826 793 774 761 766 782 786 794 802 808 810
782 786 787 792 792 793 796 791 782 773 776 777 782 773 780 775 783 784 780 780 786 787 786 791 802 781 788 785 789 792 792 806 807 816 824 790 785 776 778 785 790 799 807 811 813
781 785 787 790 793 794 796 787 777 772 776 783 779 778 776 779 777 782 784 783 782 790 789 793 801 795 788 789 789 798 798 798 797 803 811 802 790 778 787 791 800 805 808 811 813
781 787 788 789 795 789 787 777 775 778 777 781 782 784 783 780 781 783 784 784 781 789 793 795 801 815 795 787 788 792 794 796 808 803 798 792 790 786 793 799 801 803 806 807 809
779 783 788 791 787 783 775 773 772 774 777 779 780 779 777 782 787 780 779 780 786 791 796 798 811 827 814 788 790 790 794 796 798 810 800 802 790 789 794 799 799 799 799 802 806
780 788 787 786 777 775 774 771 773 772 774 775 775 775 779 782 780 782 782 785 791 797 801 801 808 818 817 797 793 809 800 800 808 813 810 802 792 779 784 792 796 798 798 799 802
775 771 767 777 774 778 773 764 767 772 774 775 775 778 780 784 782 783 783 785 791 800 800 803 818 813 806 803 805 810 809 802 809 804 811 792 792 779 777 782 789 793 794 797 800
767 773 774 770 767 770 770 766 765 767 772 775 778 774 778 783 786 799 797 796 797 800 802 804 830 818 831 816 817 817 804 806 804 799 793 787 782 777 791 789 789 790 793 795 797
770 773 772 762 766 767 765 763 762 765 769 773 778 780 783 789 797 802 806 806 808 809 812 816 827 849 841 817 826 844 804 802 794 788 785 791 789 804 797 793 796 798 797 797 797